Hourly Weather Roundup
Issued by NWS Central Illinois

Home | Current Version | Previous Version | Text Only | Print | Product List | Glossary On
Versions: 1 2 3 4 5 6 7 8 9 10 11 12 13 14 15 16 17 18 19 20 21 22 23 24 25 26 27 28 29 30 31 32 33 34 35 36 37 38 39 40 41 42 43 44 45 46 47 48 49 50
780
NZUS43 KILX 231610
HWRILX

AREA WEATHER ROUNDUP
NATIONAL WEATHER SERVICE, LINCOLN IL
1000 AM CST MON JAN 23 2017


CITY           SKY/WX    TMP DP  RH WIND       PRES   REMARKS
BLOOMINGTON    CLOUDY    38  34  85 N15       29.80R WCI  29
CHAMPAIGN      CLOUDY    38  35  89 N13       29.79R WCI  30
DANVILLE       CLOUDY    38  36  91 N15       29.74R FOG     WCI  30
DECATUR        CLOUDY    39  36  89 N13G23    29.80R WCI  31
EFFINGHAM      CLOUDY    40  38  93 NW15G22   29.80S WCI  31
FLORA          CLOUDY    42  37  83 N16G25    29.79R WCI  33
GALESBURG      CLOUDY    37  36  94 NW8       29.83R WCI  31
JACKSONVILLE   CLOUDY    39  36  88 NW9       29.84R WCI  33
LACON          CLOUDY    37  36  95 N5        29.81S FOG     WCI  34
LAWRENCEVILLE  CLOUDY    42  39  89 NW17      29.75R WCI  34
LITCHFIELD     CLOUDY    38  36  92 N13       29.81S FOG     WCI  30
$$


CITY           SKY/WX    TMP DP  RH WIND       PRES   REMARKS
LINCOLN        CLOUDY    40  36  86 N13       29.82R WCI  33
MACOMB         CLOUDY    38  36  94 NW10      29.86R WCI  30
MATTOON        CLOUDY    39  35  86 N17G24    29.77R WCI  30
MT CARMEL AP   CLOUDY    41  37  84 NW20      29.75R WCI  32
OLNEY-NOBLE AP CLOUDY    41  37  87 N15G24    29.78R WCI  33
PARIS          CLOUDY    39  37  91 N12       29.77R WCI  32
PEORIA         CLOUDY    38  36  92 N9        29.82R FOG     WCI  31
PONTIAC        CLOUDY    40  38  95 NW13      29.80S WCI  32
RANTOUL        CLOUDY    39  37  91 N15       29.78R WCI  31
SPRINGFIELD    CLOUDY    40  36  86 N12       29.82S FOG     WCI  33
TAYLORVILLE    CLOUDY    38  35  89 N15       29.81F WCI  29
$$

...REGIONAL REPORTS...


CITY           SKY/WX    TMP DP  RH WIND       PRES   REMARKS
CHICAGO O`HARE CLOUDY    38  35  89 N9G20     29.77S WCI  31
KANKAKEE       CLOUDY    39  35  86 N9        29.79R WCI  33
MOLINE         CLOUDY    39  34  82 NW9       29.83R WCI  33
MOUNT STERLING CLOUDY    38  34  83 NW9       29.84R WCI  32
MOUNT VERNON   CLOUDY    40  35  83 N9        29.78S WCI  34
PITTSFIELD     CLOUDY    40  35  84 NW10      29.86R WCI  33
QUINCY         CLOUDY    39  34  82 N14       29.85S WCI  31
ROCKFORD       CLOUDY    39  35  86 N8        29.81S WCI  33
$$


CITY           SKY/WX    TMP DP  RH WIND       PRES   REMARKS
BURLINGTON     CLOUDY    38  35  89 NW8       29.84R WCI  32
CEDAR RAPIDS   CLOUDY    34  33  96 NW10      29.84S FOG     WCI  26
DES MOINES     DRIZZLE   33  29  85 N8        29.90R WCI  26
KIRKSVILLE     CLOUDY    34  32  92 NW6       29.89R WCI  29
OTTUMWA        CLOUDY    34  30  85 W7        29.88R WCI  28
ST LOUIS       CLOUDY    43  35  73 NW10      29.84R
$$


CITY           SKY/WX    TMP DP  RH WIND       PRES   REMARKS
TERRE HAUTE    CLOUDY    42  37  82 N10G20    29.74R
EVANSVILLE     CLOUDY    44  37  76 N15G23    29.73R HAZE
INDIANAPOLIS   CLOUDY    44  42  93 NW13      29.67R FOG
LAFAYETTE      CLOUDY    39  38  96 N10       29.73R FOG     WCI  32
MADISON        CLOUDY    37  35  92 NW6       29.79F WCI  32
MILWAUKEE      CLOUDY    39  36  89 NW7       29.78R FOG     WCI  34
$$






USA.gov is the U.S. government's official web portal to all federal, state and local government web resources and services.